TimeEST,TemperatureF,Dew PointF,Humidity,Sea Level PressureIn,VisibilityMPH,Wind Direction,Wind SpeedMPH,Gust SpeedMPH,PrecipitationIn,Events,Conditions,WindDirDegrees,DateUTC
12:52 AM,48.0,42.1,80,30.36,10.0,SE,3.5,-,N/A,,Overcast,140,2012-12-02 05:52:00
1:52 AM,48.9,44.1,83,30.36,9.0,Calm,Calm,-,N/A,,Overcast,0,2012-12-02 06:52:00
2:52 AM,46.9,44.1,90,30.37,9.0,Calm,Calm,-,N/A,,Overcast,0,2012-12-02 07:52:00
3:52 AM,46.0,44.1,93,30.35,7.0,Calm,Calm,-,N/A,,Overcast,0,2012-12-02 08:52:00
4:52 AM,45.0,42.1,90,30.36,7.0,Calm,Calm,-,N/A,,Overcast,0,2012-12-02 09:52:00
5:52 AM,46.9,45.0,93,30.36,7.0,Calm,Calm,-,N/A,,Overcast,0,2012-12-02 10:52:00
6:52 AM,46.0,45.0,96,30.37,7.0,Calm,Calm,-,N/A,,Overcast,0,2012-12-02 11:52:00
7:52 AM,46.9,45.0,93,30.38,10.0,Calm,Calm,-,N/A,,Overcast,0,2012-12-02 12:52:00
8:52 AM,50.0,46.9,89,30.40,10.0,Calm,Calm,-,N/A,,Overcast,0,2012-12-02 13:52:00
9:52 AM,55.0,48.9,80,30.39,10.0,Calm,Calm,-,N/A,,Overcast,0,2012-12-02 14:52:00
10:52 AM,61.0,48.0,62,30.37,10.0,SSW,6.9,-,N/A,,Overcast,200,2012-12-02 15:52:00
11:52 AM,64.0,46.9,54,30.35,10.0,SW,8.1,-,N/A,,Overcast,230,2012-12-02 16:52:00
12:52 PM,64.9,48.9,56,30.32,10.0,SSW,6.9,-,N/A,,Overcast,210,2012-12-02 17:52:00
1:52 PM,66.9,50.0,54,30.29,10.0,SSW,9.2,16.1,N/A,,Mostly Cloudy,200,2012-12-02 18:52:00
2:52 PM,68.0,51.1,55,30.27,10.0,SSW,8.1,-,N/A,,Scattered Clouds,210,2012-12-02 19:52:00
3:52 PM,68.0,50.0,52,30.27,10.0,SW,9.2,-,N/A,,Scattered Clouds,230,2012-12-02 20:52:00
4:52 PM,64.0,51.1,63,30.26,10.0,SSW,8.1,-,N/A,,Scattered Clouds,200,2012-12-02 21:52:00
5:52 PM,59.0,50.0,72,30.26,10.0,SSW,6.9,-,N/A,,Scattered Clouds,200,2012-12-02 22:52:00
6:52 PM,57.9,50.0,75,30.27,10.0,South,5.8,-,N/A,,Partly Cloudy,190,2012-12-02 23:52:00
7:52 PM,55.9,48.9,77,30.27,10.0,South,5.8,-,N/A,,Clear,190,2012-12-03 00:52:00
8:52 PM,55.9,50.0,80,30.28,10.0,SSW,3.5,-,N/A,,Partly Cloudy,210,2012-12-03 01:52:00
9:52 PM,54.0,50.0,86,30.27,10.0,SSW,4.6,-,N/A,,Partly Cloudy,200,2012-12-03 02:52:00
10:52 PM,53.1,50.0,89,30.27,10.0,SSW,3.5,-,N/A,,Clear,200,2012-12-03 03:52:00
11:52 PM,53.1,50.0,89,30.28,10.0,SW,4.6,-,N/A,,Clear,220,2012-12-03 04:52:00